Goshen, IN

10:02 PM EST on January 22, 2018 (GMT -0500)
Goshen Municipal

Weather History for KGSH - April, 2012

Change the Weather History Date:

Sunday, April 1, 2012

  Actual Average Record
Temperature  
Mean Temperature 52 °F -  
Max Temperature 66 °F 53 °F 81 °F (1981)
Min Temperature 39 °F 35 °F 19 °F (1964)
Degree Days  
Heating Degree Days 12    
Growing Degree Days 2 (Base 50)    
Moisture  
Dew Point 45 °F    
Average Humidity 74    
Maximum Humidity 86    
Minimum Humidity 63    
Precipitation  
Precipitation 0.00 in - - ()
Sea Level Pressure  
Sea Level Pressure 29.77 in    
Wind  
Wind Speed 8 mph (East)    
Max Wind Speed 14 mph    
Max Gust Speed 22 mph    
Visibility 6 miles    
Events      
Averages and records for this station are not official NWS values.
T = Trace of Precipitation, MM = Missing Value Source: NWS Daily Summary

Daily Weather History Graph

Daily Weather History Graph

Search for Another Location

Airport or City:

Trip Planner

Search our weather history database for the weather conditions in past years. The results will help you decide how hot, cold, wet, or windy it might be!

Date:

Astronomy

Apr. 01, 2012 Rise Set
Actual Time 7:25 AM EDT 8:09 PM EDT
Civil Twilight 6:57 AM EDT 8:37 PM EDT
Nautical Twilight 6:24 AM EDT 9:10 PM EDT
Astronomical Twilight 5:50 AM EDT 9:44 PM EDT
Moon 2:34 PM EDT (4/1) 4:05 AM EDT (4/1)
Length of Visible Light 13h 39m
Length of Day
12h 43m
Waxing Gibbous, 69% of the Moon is Illuminated
Apr 1
Waxing Gibbous
Apr 6
Full
Apr 13
Last Quarter
Apr 21
New
Apr 29
First Quarter

Hourly Weather History & Observations

Time (EDT) Temp. Windchill Dew Point Humidity Pressure Visibility Wind Dir Wind Speed Gust Speed Precip Events Conditions
12:53 AM 39.9 °F 34.5 °F 35.1 °F 83% 29.91 in 7.0 mi SE 8.1 mph - N/A   Scattered Clouds
1:53 AM 39.9 °F 34.5 °F 35.1 °F 83% 29.87 in 5.0 mi SE 8.1 mph - N/A   Haze
2:53 AM 39.9 °F 35.1 °F 36.0 °F 86% 29.86 in 4.0 mi SE 6.9 mph - N/A   Mostly Cloudy
3:53 AM 42.1 °F 36.6 °F 36.0 °F 79% 29.84 in 4.0 mi SSE 9.2 mph - N/A   Haze
4:53 AM 42.1 °F 36.1 °F 37.0 °F 82% 29.81 in 3.0 mi SSE 10.4 mph - N/A   Haze
5:53 AM 43.0 °F 38.2 °F 37.0 °F 80% 29.83 in 4.0 mi South 8.1 mph - N/A   Haze
6:53 AM 43.0 °F 37.7 °F 37.9 °F 82% 29.80 in 4.0 mi SSE 9.2 mph - N/A   Haze
7:53 AM 43.0 °F 38.8 °F 39.0 °F 86% 29.79 in 3.0 mi South 6.9 mph - N/A   Partly Cloudy
8:53 AM 46.0 °F 41.4 °F 39.9 °F 79% 29.78 in 4.0 mi South 9.2 mph - N/A   Haze
9:53 AM 51.1 °F - 43.0 °F 74% 29.75 in 5.0 mi SSW 13.8 mph 21.9 mph N/A   Haze
10:53 AM 55.9 °F - 46.9 °F 72% 29.73 in 7.0 mi SSW 11.5 mph - N/A   Clear
11:32 AM 57.2 °F - 48.2 °F 72% 29.72 in 7.0 mi WSW 8.1 mph - N/A   Mostly Cloudy
11:53 AM 59.0 °F - 50.0 °F 72% 29.74 in 7.0 mi WSW 3.5 mph - N/A   Scattered Clouds
12:53 PM 61.0 °F - 52.0 °F 72% 29.73 in 8.0 mi West 4.6 mph - N/A   Overcast
2:53 PM 66.0 °F - 53.1 °F 63% 29.69 in 10.0 mi NNW 8.1 mph - N/A   Mostly Cloudy
3:53 PM 64.9 °F - 52.0 °F 63% 29.69 in 10.0 mi North 6.9 mph - N/A   Overcast
4:53 PM 64.0 °F - 52.0 °F 65% 29.68 in 10.0 mi North 6.9 mph - N/A   Overcast
5:53 PM 63.0 °F - 51.1 °F 65% 29.69 in 8.0 mi NNE 11.5 mph - N/A   Overcast
6:53 PM 62.1 °F - 50.0 °F 65% 29.71 in 7.0 mi NE 8.1 mph - N/A   Overcast
7:21 PM 62.6 °F - 50.0 °F 63% 29.72 in 7.0 mi NNE 9.2 mph - N/A   Overcast
7:53 PM 60.1 °F - 48.9 °F 67% 29.74 in 6.0 mi NE 8.1 mph - N/A   Haze
8:53 PM 59.0 °F - 48.9 °F 69% 29.75 in 7.0 mi NNE 5.8 mph - N/A   Overcast
9:26 PM 57.2 °F - 48.2 °F 72% 29.75 in 7.0 mi NNE 8.1 mph - N/A   Mostly Cloudy
9:53 PM 57.0 °F - 48.0 °F 72% 29.78 in 6.0 mi NNE 10.4 mph - N/A   Haze
10:53 PM 54.0 °F - 46.9 °F 77% 29.77 in 5.0 mi NE 6.9 mph - N/A   Haze
11:53 PM 52.0 °F - 44.1 °F 74% 29.80 in 6.0 mi NE 12.7 mph - N/A   Haze